Home > Weather > Braunau am Inn > Past weeks

Flag for Austria Past Weather in Braunau am Inn, Upper Austria, Austria — Yesterday and Last 2 Weeks

Now
66 °F

Rain showers. Low clouds.


Feels Like: 66 °F
Forecast: 61 / 77 °F
Wind: 3 mph from Southeast

Location: Salzburg-Flughafen

Current Time: Jul 26, 2016 at 10:35:10 AM

Latest Report: Jul 26, 2016 at 10:00 AM


Visibility: 25 mi

Pressure: 30.10 "Hg

Humidity: 93%

Dew Point: 64 °F

Location of Braunau am InnLocation

Past Weather in Braunau am Inn — Graph

°F

Braunau am Inn Temperature Yesterday

Maximum temperature yesterday: 76 °F (at 4:00 PM)
Minimum temperature yesterday: 66 °F (at 7:00 AM)
Average temperature yesterday: 69 °F

High & Low Weather Summary for the Past Weeks

 TemperatureHumidityPressure
High89 °F (Jul 11, 4:00 PM)100% (Jul 16, 4:00 AM)30.34 "Hg (Jul 16, 4:00 AM)
Low50 °F (Jul 14, 10:00 AM)37% (Jul 20, 5:00 PM)29.78 "Hg (Jul 11, 7:00 PM)
Average66 °F80%30.06 "Hg
* Reported Jul 11 9:00 AM — Jul 26 9:00 AM, Braunau am Inn, Weather by CustomWeather, © 2016

Note: Actual official high and low records may vary slightly from our data, if they occured in-between our weather recording intervals... More about our weather records

Advertising

Braunau am Inn Weather History for the Previous 24 Hours

Scroll right to see more
 ConditionsComfort  
Time TempWeatherWind HumidityBarometerVisibility
9:00 AM
Tue, Jul 26
64 °FLow clouds.5 mph95%30.11 "Hg25 mi
8:00 AM65 °FLow clouds.N/A94%30.10 "Hg28 mi
7:00 AM64 °FLow clouds.6 mph96%30.09 "Hg19 mi
6:00 AM64 °FLow clouds.5 mph96%30.10 "Hg17 mi
5:00 AM64 °FLow clouds.5 mph97%30.09 "Hg18 mi
4:00 AM64 °FRain showers. Low clouds.6 mph97%30.09 "Hg7 mi
3:00 AM64 °FLow clouds.5 mph95%30.09 "Hg28 mi
2:00 AM65 °FLow clouds.5 mph94%30.09 "Hg25 mi
1:00 AM65 °FRain showers. Low clouds.5 mph95%30.09 "Hg12 mi
12:00 AM66 °FOvercast.5 mph91%30.08 "Hg28 mi
11:00 PM
Mon, Jul 25
66 °FOvercast.5 mph93%30.09 "Hg22 mi
10:00 PM66 °FOvercast.6 mph90%30.09 "Hg28 mi
9:00 PM67 °FLow clouds.6 mph92%30.07 "Hg18 mi
8:00 PM68 °FOvercast.5 mph90%30.06 "Hg22 mi
7:00 PM69 °FRain showers. Overcast.N/A87%30.06 "Hg22 mi
6:00 PM66 °FRain showers. Overcast.N/A96%30.07 "Hg8 mi
5:00 PM66 °FThundershowers. Overcast.3 mph95%30.08 "Hg5 mi
4:00 PM76 °FOvercast.5 mph66%30.01 "Hg19 mi
3:00 PM76 °FOvercast.3 mph68%30.01 "Hg28 mi
2:00 PM76 °FOvercast.N/A70%30.02 "Hg19 mi
1:00 PM74 °FOvercast.N/A68%30.03 "Hg19 mi
12:00 PM73 °FOvercast.3 mph68%30.05 "Hg19 mi
11:00 AM71 °FOvercast.6 mph78%30.06 "Hg22 mi
10:00 AM71 °FOvercast.3 mph79%30.05 "Hg18 mi
Weather by CustomWeather, © 2016

See weather overviewHow to use our weather pages